DECAYED

ERS 1 DEB, 48172 (Decayed)

Orbit data source: Space-Track

ERS 1 DEB, 48172 was space debris in SSO originally from a launch on Wed, 17 Jul 1991 UTC launched from the French Guiana (FRGUI). Debris objects in space refer to the collection of defunct objects orbiting the Earth. Examples of debris include non-operational satellites, rocket bodies, and fragments generated from explosions, collisions, or faulty payload assembly.

Loading next visibility...
Identifier
48172, 1991-050U
Orbit
Decayed
Country
Flag of ESAESA
Related business
Manufacturer
Unknown
Mission
Decayed spacecraft
Bus & Motor
Unknown
Mass
Unknown
Launch date (UTC)
1991-07-17 (35 years ago)
Launch vehicle
Unknown
Launch site
French Guiana (FRGUI)
Object type
Payload
Rocket body
Debris
Shape & HBR
Unknown shape, 0.1 m
Radar Cross Section
Medium (>0.1 m² and <1 m²)

Expand to show TLE details & history
Last TLE update: 1 year ago

TLE from 1 year ago
0 ERS 1 DEB
1 48172U 91050U   25085.51127881  .09702695  00000-0  29640-1 0  9990
2 48172  98.6051 111.7383 0009072 211.7712 148.3009 15.86893850213617
Epoch: 2025-03-26T12:16Z
TLE epoch observation values (Epoch: 2025-03-26T12:16:14.489Z)
Latitude
-0.00001°
Longitude
103.48004°
Altitude
319.306 km
Speed
7.714 km/s
True Right ascension
07h 26m 57s
True Declination
0° 00' 00"
Sunlit
Object was in daylight at epoch
Visualization orbit readout
Latitude
Unknown
Longitude
Unknown
Altitude
Unknown
Speed
Unknown
Apparent Right ascension
Unknown
Apparent Declination
Unknown
Sunlit
N/A
Visualization observer readout
Local Sidereal Time
21:27:56
Azimuth
Unknown
Elevation
Unknown
Doppler factor
Unknown
Orbital elements
Apogee altitude
313.997 km
Perigee altitude
301.866 km
Semi-major axis
6,686.069 km
Eccentricity
0.00091
Inclination
98.6051°
RAAN
111.7383°
Arg. of periapsis
211.7712°
True anomaly
148.35547°
Mean anomaly
148.3009°
Eccentric anomaly
148.32819°
Mean motion
3.96997 °/min
Orbital period
90.68 mins
BSTAR
0.02964
Loading maneuver chart data...
Computing Atmospheric mass density...
Loading historical data...
Loading historical data...
Loading historical data...
Loading historical data...
Loading historical data...
Loading historical data...
Loading historical data...

Documentation

Showing up to 5 results
|